WZZ3KQ LIMJ-LHBP

Flight info

Callsign WZZ3KQ
Flight time 1h 16m
Altitude 34000
Route GEN DCT GOLAS DCT KALIK DCT LURUT DCT CHI DCT BARPI/N0442F350 DCT KOPRY DCT ULZAK
Aircraft A321/M-SDE1E2E3FGIJ1J4RWXY/LB1

Departure

Time 2026-05-05 08:11
Airport Genoa Cristoforo Colombo Airport (LIMJ)

Arrival

Time 2026-05-05 09:28
Airport Budapest Liszt Ferenc International Airport (LHBP)
Time Latitude Longitude Altitude Speed Heading
2026-05-05 07:41 44.41376 8.85170 22 ft 0 kts 15°
2026-05-05 08:01 44.41368 8.85167 21 ft 3 kts 15°
2026-05-05 08:02 44.41350 8.85160 20 ft 3 kts 15°
2026-05-05 08:02 44.41332 8.85158 20 ft 3 kts 330°
2026-05-05 08:02 44.41316 8.85172 23 ft 3 kts 306°
2026-05-05 08:02 44.41306 8.85193 22 ft 3 kts 290°
2026-05-05 08:03 44.41305 8.85197 20 ft 0 kts 291°
2026-05-05 08:04 44.41307 8.85191 22 ft 1 kts 291°
2026-05-05 08:04 44.41311 8.85172 21 ft 3 kts 289°
2026-05-05 08:05 44.41318 8.85142 21 ft 4 kts 285°
2026-05-05 08:05 44.41328 8.85090 22 ft 7 kts 285°
2026-05-05 08:05 44.41344 8.85006 20 ft 10 kts 284°
2026-05-05 08:05 44.41361 8.84907 20 ft 11 kts 283°
2026-05-05 08:06 44.41381 8.84799 20 ft 12 kts 285°
2026-05-05 08:06 44.41404 8.84680 20 ft 13 kts 285°
2026-05-05 08:06 44.41398 8.84558 22 ft 13 kts 237°
2026-05-05 08:06 44.41340 8.84451 20 ft 14 kts 232°
2026-05-05 08:07 44.41322 8.84323 20 ft 14 kts 284°
2026-05-05 08:07 44.41353 8.84186 20 ft 15 kts 283°
2026-05-05 08:07 44.41379 8.84039 20 ft 16 kts 285°
2026-05-05 08:07 44.41409 8.83885 20 ft 17 kts 285°
2026-05-05 08:08 44.41441 8.83724 20 ft 18 kts 285°
2026-05-05 08:08 44.41474 8.83558 22 ft 18 kts 285°
2026-05-05 08:08 44.41508 8.83381 20 ft 19 kts 283°
2026-05-05 08:08 44.41541 8.83203 20 ft 19 kts 285°
2026-05-05 08:09 44.41573 8.83040 20 ft 16 kts 285°
2026-05-05 08:09 44.41605 8.82882 22 ft 17 kts 285°
2026-05-05 08:09 44.41637 8.82715 20 ft 18 kts 285°
2026-05-05 08:09 44.41660 8.82559 19 ft 14 kts 264°
2026-05-05 08:10 44.41591 8.82473 18 ft 15 kts 187°
2026-05-05 08:10 44.41514 8.82550 18 ft 15 kts 102°
2026-05-05 08:10 44.41490 8.82668 19 ft 8 kts 105°
2026-05-05 08:10 44.41489 8.82672 19 ft 0 kts 105°
2026-05-05 08:11 44.41432 8.82967 21 ft 69 kts 105°
2026-05-05 08:11 44.41243 8.83936 20 ft 135 kts 105°
2026-05-05 08:11 44.40941 8.85422 163 ft 173 kts 102°
2026-05-05 08:11 44.40599 8.87050 829 ft 175 kts 102°
2026-05-05 08:12 44.40275 8.88689 1468 ft 178 kts 101°
2026-05-05 08:12 44.40106 8.90471 1725 ft 196 kts 85°
2026-05-05 08:12 44.40297 8.92457 1878 ft 217 kts 77°
2026-05-05 08:12 44.40610 8.94615 2098 ft 242 kts 75°
2026-05-05 08:13 44.40972 8.97029 2600 ft 256 kts 76°
2026-05-05 08:13 44.41319 8.99459 3321 ft 260 kts 76°
2026-05-05 08:13 44.41656 9.01954 4085 ft 263 kts 79°
2026-05-05 08:13 44.41980 9.04478 4869 ft 265 kts 82°
2026-05-05 08:14 44.42296 9.07024 5570 ft 268 kts 82°
2026-05-05 08:14 44.42577 9.09641 6218 ft 275 kts 86°
2026-05-05 08:14 44.42770 9.12331 6744 ft 281 kts 88°
2026-05-05 08:14 44.42923 9.15074 7338 ft 286 kts 89°
2026-05-05 08:15 44.43064 9.17860 8007 ft 289 kts 89°
2026-05-05 08:15 44.43209 9.20681 8708 ft 293 kts 88°
2026-05-05 08:15 44.43361 9.23540 9410 ft 297 kts 88°
2026-05-05 08:15 44.43520 9.26442 10044 ft 301 kts 88°
2026-05-05 08:16 44.43631 9.28444 10322 ft 312 kts 88°
2026-05-05 08:16 44.43801 9.31535 10461 ft 334 kts 88°
2026-05-05 08:16 44.43986 9.34872 10625 ft 352 kts 87°
2026-05-05 08:16 44.44185 9.38326 11111 ft 359 kts 88°
2026-05-05 08:17 44.44385 9.41834 11724 ft 364 kts 88°
2026-05-05 08:17 44.44588 9.45387 12356 ft 368 kts 88°
2026-05-05 08:17 44.44793 9.48985 12924 ft 376 kts 89°
2026-05-05 08:17 44.44997 9.52647 13547 ft 379 kts 88°
2026-05-05 08:18 44.45199 9.56344 14078 ft 383 kts 88°
2026-05-05 08:18 44.45401 9.60076 14623 ft 386 kts 88°
2026-05-05 08:18 44.45606 9.63839 15167 ft 389 kts 88°
2026-05-05 08:18 44.45822 9.67622 15878 ft 391 kts 88°
2026-05-05 08:19 44.46047 9.71434 16582 ft 396 kts 88°
2026-05-05 08:19 44.46276 9.75303 17322 ft 401 kts 89°
2026-05-05 08:19 44.46506 9.79215 18070 ft 406 kts 89°
2026-05-05 08:19 44.46737 9.83174 18722 ft 410 kts 89°
2026-05-05 08:20 44.46963 9.87157 19230 ft 412 kts 89°
2026-05-05 08:20 44.47181 9.91165 19711 ft 414 kts 89°
2026-05-05 08:20 44.47393 9.95199 20191 ft 417 kts 89°
2026-05-05 08:20 44.47606 9.99261 20695 ft 419 kts 89°
2026-05-05 08:21 44.47821 10.03346 21178 ft 422 kts 89°
2026-05-05 08:21 44.48036 10.07453 21667 ft 424 kts 89°
2026-05-05 08:21 44.48245 10.11527 22123 ft 427 kts 89°
2026-05-05 08:21 44.48457 10.15682 22601 ft 429 kts 89°
2026-05-05 08:22 44.48668 10.19858 23045 ft 431 kts 89°
2026-05-05 08:22 44.48880 10.24051 23516 ft 432 kts 89°
2026-05-05 08:22 44.49091 10.28257 23945 ft 434 kts 89°
2026-05-05 08:22 44.49301 10.32479 24317 ft 436 kts 89°
2026-05-05 08:23 44.49511 10.36729 24686 ft 437 kts 89°
2026-05-05 08:23 44.49717 10.40989 25029 ft 440 kts 89°
2026-05-05 08:23 44.49923 10.45272 25389 ft 442 kts 89°
2026-05-05 08:23 44.50128 10.49583 25743 ft 444 kts 89°
2026-05-05 08:24 44.50335 10.53907 26080 ft 446 kts 89°
2026-05-05 08:24 44.50543 10.58248 26419 ft 448 kts 89°
2026-05-05 08:24 44.50750 10.62607 26805 ft 449 kts 89°
2026-05-05 08:24 44.50952 10.66966 27174 ft 450 kts 89°
2026-05-05 08:25 44.51156 10.71353 27507 ft 452 kts 89°
2026-05-05 08:25 44.51360 10.75756 27842 ft 454 kts 89°
2026-05-05 08:25 44.51562 10.80168 28166 ft 455 kts 89°
2026-05-05 08:25 44.51759 10.84602 28480 ft 457 kts 89°
2026-05-05 08:26 44.51954 10.89062 28780 ft 459 kts 89°
2026-05-05 08:26 44.52214 10.93529 29067 ft 462 kts 84°
2026-05-05 08:26 44.52911 10.97947 29350 ft 467 kts 75°
2026-05-05 08:26 44.54110 11.02201 29645 ft 472 kts 65°
2026-05-05 08:27 44.55745 11.06192 29937 ft 475 kts 60°
2026-05-05 08:27 44.57466 11.10163 30207 ft 477 kts 60°
2026-05-05 08:27 44.59163 11.14103 30467 ft 478 kts 60°
2026-05-05 08:27 44.60895 11.18151 30834 ft 478 kts 60°
2026-05-05 08:28 44.62597 11.22137 31209 ft 478 kts 60°
2026-05-05 08:28 44.64309 11.26148 31573 ft 477 kts 60°
2026-05-05 08:28 44.66016 11.30146 31967 ft 476 kts 60°
2026-05-05 08:28 44.67716 11.34135 32319 ft 476 kts 60°
2026-05-05 08:29 44.69415 11.38130 32651 ft 476 kts 60°
2026-05-05 08:29 44.71113 11.42124 32949 ft 476 kts 60°
2026-05-05 08:29 44.72792 11.46075 33215 ft 478 kts 60°
2026-05-05 08:30 44.76198 11.54115 33830 ft 479 kts 60°
2026-05-05 08:30 44.77900 11.58136 34113 ft 479 kts 60°
2026-05-05 08:30 44.79605 11.62162 34412 ft 479 kts 60°
2026-05-05 08:30 44.81309 11.66194 34700 ft 479 kts 60°
2026-05-05 08:31 44.83011 11.70235 34951 ft 480 kts 60°
2026-05-05 08:31 44.86399 11.78308 35016 ft 477 kts 60°
2026-05-05 08:32 44.89773 11.86371 35020 ft 477 kts 60°
2026-05-05 08:32 44.93134 11.94412 35020 ft 476 kts 60°
2026-05-05 08:33 44.96485 12.02455 35025 ft 475 kts 60°
2026-05-05 08:33 44.99824 12.10499 35027 ft 475 kts 60°
2026-05-05 08:34 45.03160 12.18556 35031 ft 475 kts 60°
2026-05-05 08:34 45.06499 12.26632 35039 ft 475 kts 60°
2026-05-05 08:35 45.09857 12.34707 35041 ft 476 kts 59°
2026-05-05 08:35 45.13240 12.42675 35046 ft 475 kts 59°
2026-05-05 08:36 45.16645 12.50702 35045 ft 475 kts 59°
2026-05-05 08:36 45.20024 12.58750 35043 ft 475 kts 59°
2026-05-05 08:37 45.23392 12.66804 35042 ft 475 kts 59°
2026-05-05 08:37 45.26759 12.74871 35051 ft 475 kts 59°
2026-05-05 08:38 45.30118 12.82938 35047 ft 475 kts 59°
2026-05-05 08:38 45.33475 12.91016 35049 ft 474 kts 59°
2026-05-05 08:39 45.36819 12.99101 35047 ft 474 kts 59°
2026-05-05 08:39 45.40163 13.07203 35051 ft 474 kts 59°
2026-05-05 08:40 45.43474 13.15245 35065 ft 474 kts 59°
2026-05-05 08:40 45.46790 13.23357 35058 ft 474 kts 60°
2026-05-05 08:41 45.50097 13.31451 35061 ft 474 kts 59°
2026-05-05 08:41 45.53418 13.39562 35067 ft 474 kts 59°
2026-05-05 08:42 45.56724 13.47696 35076 ft 474 kts 59°
2026-05-05 08:42 45.59412 13.56238 35082 ft 472 kts 75°
2026-05-05 08:43 45.61255 13.65236 35083 ft 472 kts 74°
2026-05-05 08:43 45.63113 13.74230 35073 ft 472 kts 74°
2026-05-05 08:44 45.64954 13.83174 35064 ft 472 kts 74°
2026-05-05 08:44 45.66792 13.92174 35069 ft 472 kts 74°
2026-05-05 08:45 45.68621 14.01183 35074 ft 472 kts 74°
2026-05-05 08:45 45.70446 14.10223 35077 ft 472 kts 75°
2026-05-05 08:46 45.72261 14.19228 35079 ft 471 kts 75°
2026-05-05 08:46 45.74065 14.28225 35068 ft 470 kts 74°
2026-05-05 08:47 45.75855 14.37205 35063 ft 468 kts 75°
2026-05-05 08:47 45.77625 14.46172 35052 ft 468 kts 75°
2026-05-05 08:48 45.79397 14.55138 35053 ft 467 kts 75°
2026-05-05 08:48 45.81166 14.64105 35041 ft 467 kts 75°
2026-05-05 08:49 45.82924 14.73069 35034 ft 467 kts 75°
2026-05-05 08:49 45.84670 14.82043 35026 ft 467 kts 75°
2026-05-05 08:50 45.86399 14.90967 35030 ft 468 kts 75°
2026-05-05 08:50 45.88137 14.99962 35029 ft 468 kts 75°
2026-05-05 08:51 45.89870 15.08958 35030 ft 468 kts 75°
2026-05-05 08:51 45.91598 15.17976 35011 ft 468 kts 75°
2026-05-05 08:52 45.93314 15.26991 35017 ft 468 kts 75°
2026-05-05 08:52 45.95021 15.36002 35026 ft 467 kts 75°
2026-05-05 08:53 45.96721 15.45020 35026 ft 467 kts 75°
2026-05-05 08:53 45.98409 15.54021 35026 ft 466 kts 75°
2026-05-05 08:54 46.00087 15.63027 35024 ft 466 kts 75°
2026-05-05 08:54 46.01764 15.72033 35025 ft 466 kts 75°
2026-05-05 08:55 46.03422 15.80985 35025 ft 466 kts 75°
2026-05-05 08:55 46.05077 15.90001 35026 ft 466 kts 75°
2026-05-05 08:56 46.06731 15.99017 35033 ft 466 kts 75°
2026-05-05 08:56 46.08385 16.08086 35019 ft 467 kts 75°
2026-05-05 08:57 46.10024 16.17138 35020 ft 467 kts 75°
2026-05-05 08:57 46.11665 16.26195 35017 ft 467 kts 75°
2026-05-05 08:58 46.13284 16.35197 35016 ft 467 kts 75°
2026-05-05 08:58 46.14900 16.44259 35016 ft 467 kts 75°
2026-05-05 08:59 46.16510 16.53339 35017 ft 467 kts 75°
2026-05-05 08:59 46.18113 16.62415 35018 ft 467 kts 75°
2026-05-05 09:00 46.19715 16.71490 35019 ft 467 kts 75°
2026-05-05 09:00 46.21305 16.80573 35017 ft 466 kts 75°
2026-05-05 09:01 46.22885 16.89662 35019 ft 466 kts 75°
2026-05-05 09:01 46.25168 16.98374 35014 ft 464 kts 59°
2026-05-05 09:02 46.28768 17.06077 35018 ft 463 kts 53°
2026-05-05 09:02 46.32450 17.13702 35017 ft 462 kts 53°
2026-05-05 09:03 46.36106 17.21339 35015 ft 462 kts 54°
2026-05-05 09:03 46.39762 17.28988 35007 ft 461 kts 54°
2026-05-05 09:03 46.41592 17.32813 34818 ft 461 kts 54°
2026-05-05 09:04 46.43412 17.36625 34568 ft 459 kts 53°
2026-05-05 09:04 46.45223 17.40426 34336 ft 457 kts 54°
2026-05-05 09:04 46.47026 17.44216 34091 ft 455 kts 54°
2026-05-05 09:04 46.48801 17.47948 33838 ft 455 kts 54°
2026-05-05 09:05 46.50615 17.51766 33560 ft 453 kts 54°
2026-05-05 09:05 46.52371 17.55471 33293 ft 451 kts 54°
2026-05-05 09:05 46.54141 17.59214 32818 ft 448 kts 54°
2026-05-05 09:05 46.55895 17.62929 32322 ft 444 kts 55°
2026-05-05 09:06 46.57635 17.66619 31808 ft 442 kts 55°
2026-05-05 09:06 46.59367 17.70301 31327 ft 439 kts 55°
2026-05-05 09:06 46.61085 17.73953 30837 ft 437 kts 56°
2026-05-05 09:06 46.62796 17.77593 30349 ft 435 kts 56°
2026-05-05 09:07 46.64501 17.81222 29813 ft 433 kts 56°
2026-05-05 09:07 46.66195 17.84829 29329 ft 429 kts 56°
2026-05-05 09:07 46.67868 17.88398 28852 ft 425 kts 56°
2026-05-05 09:07 46.69527 17.91946 28387 ft 422 kts 56°
2026-05-05 09:08 46.71169 17.95467 27928 ft 418 kts 56°
2026-05-05 09:08 46.72794 17.98956 27483 ft 415 kts 56°
2026-05-05 09:08 46.74413 18.02432 27043 ft 412 kts 56°
2026-05-05 09:08 46.76015 18.05878 26608 ft 410 kts 56°
2026-05-05 09:09 46.77611 18.09314 26188 ft 408 kts 56°
2026-05-05 09:09 46.79195 18.12730 25768 ft 406 kts 56°
2026-05-05 09:09 46.80241 18.14986 25472 ft 405 kts 56°
2026-05-05 09:09 46.82351 18.19534 24910 ft 403 kts 56°
2026-05-05 09:10 46.83390 18.21778 24621 ft 402 kts 56°
2026-05-05 09:10 46.84949 18.25153 24196 ft 401 kts 56°
2026-05-05 09:10 46.86505 18.28531 23772 ft 400 kts 56°
2026-05-05 09:10 46.88055 18.31895 23275 ft 398 kts 56°
2026-05-05 09:11 46.89596 18.35240 22828 ft 395 kts 56°
2026-05-05 09:11 46.91128 18.38568 22375 ft 393 kts 56°
2026-05-05 09:11 46.92647 18.41874 21933 ft 390 kts 56°
2026-05-05 09:11 46.94150 18.45154 21468 ft 387 kts 57°
2026-05-05 09:12 46.95642 18.48418 21019 ft 385 kts 57°
2026-05-05 09:12 46.97122 18.51663 20554 ft 382 kts 57°
2026-05-05 09:12 46.98661 18.54825 20106 ft 380 kts 50°
2026-05-05 09:12 47.00548 18.57521 19657 ft 379 kts 38°
2026-05-05 09:13 47.02737 18.59646 19227 ft 376 kts 31°
2026-05-05 09:13 47.04972 18.61614 18806 ft 374 kts 31°
2026-05-05 09:13 47.07194 18.63577 18361 ft 372 kts 32°
2026-05-05 09:13 47.09406 18.65537 17881 ft 370 kts 32°
2026-05-05 09:14 47.11595 18.67485 17446 ft 366 kts 32°
2026-05-05 09:14 47.13763 18.69421 17030 ft 363 kts 32°
2026-05-05 09:14 47.15914 18.71345 16604 ft 360 kts 32°
2026-05-05 09:14 47.17969 18.73399 16181 ft 356 kts 41°
2026-05-05 09:15 47.19687 18.75980 15766 ft 351 kts 54°
2026-05-05 09:15 47.21030 18.78942 15356 ft 347 kts 60°
2026-05-05 09:15 47.22291 18.81906 14949 ft 345 kts 60°
2026-05-05 09:15 47.23581 18.84931 14534 ft 344 kts 60°
2026-05-05 09:16 47.24832 18.87864 14103 ft 343 kts 60°
2026-05-05 09:16 47.26102 18.90842 13671 ft 343 kts 61°
2026-05-05 09:16 47.27362 18.93812 13201 ft 342 kts 61°
2026-05-05 09:16 47.28614 18.96767 12804 ft 339 kts 60°
2026-05-05 09:17 47.29858 18.99697 12344 ft 339 kts 60°
2026-05-05 09:17 47.31321 19.02411 11878 ft 341 kts 46°
2026-05-05 09:17 47.33076 19.04772 11439 ft 341 kts 44°
2026-05-05 09:17 47.34830 19.07115 10998 ft 340 kts 44°
2026-05-05 09:18 47.36654 19.09310 10544 ft 340 kts 30°
2026-05-05 09:18 47.38855 19.10279 10052 ft 325 kts 359°
2026-05-05 09:18 47.40970 19.09597 9544 ft 304 kts 327°
2026-05-05 09:18 47.42531 19.07678 9027 ft 284 kts 307°
2026-05-05 09:19 47.43821 19.05524 8531 ft 276 kts 307°
2026-05-05 09:19 47.45085 19.03455 8076 ft 270 kts 307°
2026-05-05 09:19 47.46343 19.01408 7581 ft 269 kts 307°
2026-05-05 09:19 47.47592 18.99377 7069 ft 265 kts 307°
2026-05-05 09:20 47.48825 18.97370 6593 ft 262 kts 306°
2026-05-05 09:20 47.50046 18.95383 6077 ft 260 kts 306°
2026-05-05 09:20 47.51258 18.93410 5595 ft 259 kts 306°
2026-05-05 09:20 47.52570 18.91589 5091 ft 262 kts 323°
2026-05-05 09:21 47.54311 18.90771 4457 ft 267 kts 356°
2026-05-05 09:21 47.56079 18.91373 4055 ft 267 kts 31°
2026-05-05 09:21 47.57547 18.93062 3971 ft 255 kts 44°
2026-05-05 09:21 47.58670 18.94921 4005 ft 231 kts 66°
2026-05-05 09:22 47.59064 18.96975 4034 ft 189 kts 95°
2026-05-05 09:22 47.58911 18.98696 4012 ft 155 kts 118°
2026-05-05 09:22 47.58421 19.00024 4005 ft 142 kts 138°
2026-05-05 09:22 47.57762 19.01104 4003 ft 143 kts 141°
2026-05-05 09:23 47.57093 19.02199 3899 ft 143 kts 141°
2026-05-05 09:23 47.56424 19.03291 3753 ft 143 kts 140°
2026-05-05 09:23 47.55758 19.04378 3570 ft 142 kts 140°
2026-05-05 09:23 47.55082 19.05479 3385 ft 146 kts 140°
2026-05-05 09:24 47.54399 19.06592 3208 ft 146 kts 140°
2026-05-05 09:24 47.53719 19.07701 3021 ft 145 kts 140°
2026-05-05 09:24 47.53048 19.08794 2827 ft 142 kts 139°
2026-05-05 09:24 47.52385 19.09873 2640 ft 143 kts 138°
2026-05-05 09:25 47.51715 19.10962 2457 ft 143 kts 139°
2026-05-05 09:25 47.51043 19.12055 2231 ft 144 kts 137°
2026-05-05 09:25 47.50362 19.13162 2054 ft 145 kts 137°
2026-05-05 09:25 47.49687 19.14258 1859 ft 143 kts 136°
2026-05-05 09:26 47.49014 19.15352 1680 ft 144 kts 135°
2026-05-05 09:26 47.48358 19.16418 1492 ft 140 kts 137°
2026-05-05 09:26 47.47700 19.17485 1301 ft 140 kts 136°
2026-05-05 09:26 47.47042 19.18554 1114 ft 140 kts 137°
2026-05-05 09:27 47.46373 19.19637 931 ft 144 kts 136°
2026-05-05 09:27 47.45719 19.20721 673 ft 140 kts 134°
2026-05-05 09:27 47.45058 19.21781 525 ft 140 kts 135°
2026-05-05 09:27 47.44413 19.22822 451 ft 127 kts 133°
2026-05-05 09:28 47.43928 19.23590 456 ft 78 kts 133°
2026-05-05 09:28 47.43716 19.24005 452 ft 37 kts 110°
2026-05-05 09:28 47.43664 19.24311 456 ft 25 kts 107°
2026-05-05 09:28 47.43590 19.24545 457 ft 25 kts 124°
2026-05-05 09:29 47.43493 19.24708 457 ft 18 kts 133°
2026-05-05 09:29 47.43405 19.24849 457 ft 19 kts 132°
2026-05-05 09:29 47.43316 19.24996 457 ft 19 kts 131°
2026-05-05 09:29 47.43241 19.25127 457 ft 15 kts 115°
2026-05-05 09:30 47.43263 19.25277 457 ft 16 kts 47°
2026-05-05 09:30 47.43348 19.25395 457 ft 17 kts 43°
2026-05-05 09:30 47.43441 19.25517 457 ft 18 kts 42°
2026-05-05 09:30 47.43536 19.25648 457 ft 19 kts 43°
2026-05-05 09:31 47.43635 19.25779 457 ft 16 kts 42°
2026-05-05 09:31 47.43711 19.25879 457 ft 13 kts 41°
2026-05-05 09:31 47.43732 19.25971 457 ft 9 kts 114°
2026-05-05 09:31 47.43689 19.26051 457 ft 11 kts 122°
2026-05-05 09:32 47.43676 19.26162 457 ft 12 kts 91°
2026-05-05 09:32 47.43679 19.26290 457 ft 13 kts 91°
2026-05-05 09:32 47.43634 19.26401 458 ft 13 kts 133°
2026-05-05 09:32 47.43585 19.26478 458 ft 4 kts 137°
2026-05-05 09:33 47.43565 19.26471 458 ft 3 kts 215°
2026-05-05 09:33 47.43552 19.26454 458 ft 2 kts 221°
2026-05-05 09:33 47.43541 19.26439 458 ft 0 kts 222°
2026-05-05 09:33 47.43538 19.26435 457 ft 0 kts 222°